Weather Roundup
Issued by NWS

Home | Current Version | Previous Version | Text Only | Print | Product List | Glossary On
Versions: 1 2 3 4 5 6 7 8 9 10 11 12 13 14 15 16 17 18 19 20 21 22 23 24 25 26 27 28 29 30 31 32 33 34 35 36 37 38 39 40 41 42 43 44 45 46 47 48 49 50
000
NZUS93 KARX 280510
HRRWXR

CURRENT HOURLY OBSERVATIONS ACROSS
MUCH OF THE UPPER MISSISSIPPI VALLEY
NATIONAL WEATHER SERVICE LA CROSSE WI
1200 AM CDT TUE MAR 28 2017


...SOUTHEAST MINNESOTA...


CITY           SKY/WX    TMP DP  RH WIND       PRES   REMARKS
ROCHESTER      CLEAR     39  38  96 NE3       30.02R
ROCHESTER/MAYO FAIR      40  40 100 CALM      30.02S
WINONA         PTCLDY    36  36 100 NW3       30.04R
AUSTIN         CLEAR     37  36  93 CALM      30.01S
ALBERT LEA     CLOUDY    36  36 100 CALM      30.01S FOG
DODGE CENTER   CLEAR     36  36 100 CALM      30.02S FOG
PRESTON        MOCLDY    38  36  92 CALM      30.02R
OWATONNA       CLEAR     36  34  93 CALM      30.02S
FARIBAULT      PTCLDY    36  34  93 CALM      30.03R
$$

...ELSEWHERE IN MINNESOTA...


CITY           SKY/WX    TMP DP  RH WIND       PRES   REMARKS
MINNEAPOLIS    PTCLDY    44  35  70 CALM      30.02S
INTNL FALLS    CLOUDY    42  26  53 NE5       30.04R
DULUTH         CLEAR     33  29  85 CALM      30.03R
RED WING       CLEAR     34  32  93 CALM      30.03R
REDWOOD FALLS  PTCLDY    45  33  63 NE3       30.02S
MANKATO        CLEAR     39  37  92 E5        30.03R
WORTHINGTON    CLEAR     38  35  89 SW5       30.03R WCI  34
FAIRMONT       CLEAR     37  36  96 W3        30.03R
$$

...SOUTHWEST WISCONSIN...


CITY           SKY/WX    TMP DP  RH WIND       PRES   REMARKS
LA CROSSE      CLOUDY    43  39  86 CALM      30.01S
PRAIRIE DU CHI CLOUDY    45  43  93 CALM      30.00F
BOSCOBEL       CLOUDY    46  44  93 CALM      30.01R
LONE ROCK      CLOUDY    46  43  89 NE3       30.00S
PLATTEVILLE    CLOUDY    46  46 100 CALM      30.00R
FORT MC COY    CLOUDY    41  39  92 CALM      30.02S
CAMP DOUGLAS   CLOUDY    40  38  96 CALM      30.01S
MAUSTON-NEW LI CLOUDY    42  40  93 CALM      30.01S
VIROQUA        CLOUDY    42  42  99 CALM      29.99S
WIS DELLS      CLOUDY    42  40  96 NE6       30.00S FOG
$$

...ELSEWHERE IN WISCONSIN...


CITY           SKY/WX    TMP DP  RH WIND       PRES   REMARKS
MILWAUKEE      CLOUDY    39  36  89 N6        30.00S WCI  35
MADISON        CLOUDY    43  42  97 NE5       30.00R
GREEN BAY      CLOUDY    40  38  93 NW3       30.02R
EAU CLAIRE     PTCLDY    32  31  96 CALM      30.03R
BLACK RVR FLS    N/A     30  30 100 CALM      30.02R FOG
MEDFORD        FOG       29  29  99 E3        30.01S VSB 1/4
WAUSAU         MOCLDY    33  32  96 N6        30.01R WCI  28
WIS RAPIDS     CLOUDY    38  38 100 CALM      30.03R
MARSHFIELD     CLEAR     35  33  92 N5        30.00R WCI  31
RICE LAKE      CLEAR     32  31  96 CALM      30.05R
$$

...NORTHEAST IOWA...


CITY           SKY/WX    TMP DP  RH WIND       PRES   REMARKS
WATERLOO       CLOUDY    46  42  86 CALM      30.01R
DUBUQUE        CLOUDY    46  44  93 N5        30.00R
DECORAH        CLOUDY    43  41  93 CALM      30.00S
MASON CITY     FOG       34  33  96 CALM      30.02S VSB 1/4
CHARLES CITY   CLOUDY    45  45 100 N5        30.01S
OELWEIN        CLOUDY    45  45 100 N3        30.01S
$$

...ELSEWHERE IN IOWA...


CITY           SKY/WX    TMP DP  RH WIND       PRES   REMARKS
DES MOINES     CLOUDY    48  41  76 N3        30.01S
IOWA CITY      CLOUDY    50  45  83 N6        30.01R
FORT DODGE     CLEAR     36  30  80 CALM      30.02S
MARSHALLTOWN   CLOUDY    45  43  93 N3        30.00S
CEDAR RAPIDS   CLOUDY    47  47 100 CALM      29.99S
$$

...NORTHERN ILLINOIS...


CITY           SKY/WX    TMP DP  RH WIND       PRES   REMARKS
CHICAGO-OHARE  CLOUDY    42  36  79 N7        29.98S
CHICAGO-MIDWAY CLOUDY    42  37  82 N7        29.98S
MOLINE         CLOUDY    50  44  80 CALM      29.98S
ROCKFORD       DRIZZLE   47  44  90 E6        30.00S FOG
PEORIA         CLOUDY    51  49  92 N8        29.96R
$$

NOTE: "FAIR" INDICATES FEW OR NO CLOUDS BELOW 12,000 FEET WITH NO
SIGNIFICANT WEATHER AND/OR OBSTRUCTIONS TO VISIBILITY. WIND
SPEEDS ARE IN MILES-PER-HOUR.




USA.gov is the U.S. government's official web portal to all federal, state and local government web resources and services.